Location: Belcastel
(44.3882°N, 2.3352°E)
Time: 11:15:29
(UTC+00:00)

Daily predictions for brighter satellites

Satellite Brightness Start Highest point End
(mag) Time Altitude Azimuth Time Altitude Azimuth Time Altitude Azimuth
SL-16 R/B 2.7 18:52:39 10° SW 18:58:16 67° WNW 19:03:57 10° NNE
Terra 3.4 18:56:45 10° ESE 18:59:56 18° ENE 19:03:07 10° NNE
Atlas Centaur 2 4.2 18:57:06 10° SW 19:00:34 16° S 19:04:28 10° SSE
Meteor 1-22 Rocket 4.2 18:57:30 10° S 19:03:02 72° E 19:08:51 10° NNE
Cosmos 1898 Rocket 3.8 18:58:40 10° S 19:03:39 46° ESE 19:08:38 10° NNE
CZ-4 R/B 2.3 19:01:20 10° SE 19:04:36 28° ENE 19:07:51 10° N
PSLV R/B 4.2 19:01:25 10° S 19:05:24 57° W 19:09:26 10° NNW
Resurs 01 Rocket 2.5 19:02:09 10° S 19:06:26 54° W 19:10:44 10° NNW
Okean O Rocket 3.7 19:07:57 10° ENE 19:09:12 11° ENE 19:10:28 10° NE
Cosmos 2333 4.1 19:07:30 10° SSW 19:13:03 70° ESE 19:18:38 10° NNE
Cosmos 372 Rocket 3.9 19:09:16 10° SSW 19:14:27 77° ESE 19:19:42 10° NNE
Tiangong -0.1 19:12:22 10° WSW 19:14:46 20° SSW 19:17:09 10° SSE
Meteor 1-24 Rocket 3.7 19:09:36 10° N 19:15:03 70° ENE 19:20:40 10° SSE
Cosmos 1538 Rocket 4.0 19:10:06 10° NNW 19:15:16 71° ENE 19:20:24 10° SSE
CENTAUR R/B 4.1 19:09:05 10° NW 19:17:24 56° WSW 19:26:36 10° SSE
Cosmos 1844 4.5 19:11:47 10° NNW 19:17:26 56° WSW 19:23:03 10° S
Cosmos 2219 Rocket 2.2 19:13:28 10° S 19:18:55 58° ESE 19:24:24 10° NNE
SPOT 5 2.8 19:15:06 10° SSE 19:19:52 67° ENE 19:24:25 10° N
CZ-4B R/B 3.8 19:18:46 10° SSE 19:22:14 53° ENE 19:25:51 10° N
Cosmos 2074 Rocket 4.0 19:16:04 10° S 19:22:16 76° E 19:28:31 10° N
Meteor 1-31 Rocket 2.7 19:21:27 10° SSE 19:24:53 54° ENE 19:28:20 10° N
Cosmos 1937 Rocket 3.6 19:20:04 10° S 19:25:10 53° ESE 19:30:19 10° NNE
Cosmos 923 Rocket 4.4 19:29:38 10° N 19:34:47 48° ENE 19:38:50 16° SE
USA 234 3.6 19:29:41 10° NE 19:36:11 69° NNW 19:42:41 10° WSW
COSMOS 2428 3.6 19:31:43 10° SSE 19:36:24 27° ESE 19:41:07 10° NE
IRAS Rocket 4.2 19:32:40 10° SSE 19:38:11 88° WSW 19:43:44 10° NNW
Cosmos 1953 3.0 19:35:18 10° SSW 19:38:47 49° WNW 19:42:17 10° N
Meteor 1-15 Rocket 4.3 19:33:21 10° SSW 19:38:53 83° W 19:44:30 10° N
PAYLOAD B 4.4 19:33:52 10° SSE 19:39:14 56° ENE 19:44:36 10° N
CZ-4B R/B 3.6 19:35:07 13° SE 19:39:46 47° ENE 19:45:07 10° N
CZ-4B DEB 4.2 19:34:57 10° SSE 19:40:20 65° ENE 19:45:46 10° N
CSL-04 Rocket 3.8 19:35:07 10° SSE 19:40:38 86° WSW 19:46:14 10° NNW
Cosmos 2278 Rocket 3.7 19:40:35 10° N 19:44:53 21° NE 19:47:49 15° E
Cosmos 1610 Rocket 4.5 19:41:00 10° S 19:47:16 72° E 19:53:31 10° NNE
Cosmos 2333 Rocket 4.0 19:42:35 10° WSW 19:47:46 35° NW 19:52:57 10° NNE
NOSS 3-2 (C) 4.2 19:42:42 10° NNW 19:49:58 64° NE 19:56:23 20° SE
Cosmos 1703 Rocket 3.4 19:50:52 10° N 19:55:12 79° E 19:58:41 15° SSE
Geosat 3.9 19:51:09 10° NNE 19:56:11 87° ESE 20:01:11 10° SSW
BREEZE-M DEB (TANK) 3.2 19:53:51 10° WNW 19:56:12 35° N 19:59:32 13° ENE
Spot 2 Rocket 4.2 19:53:55 23° ESE 19:56:13 34° ENE 20:00:43 10° N
Cosmos 1470 Rocket 4.1 19:51:53 10° SSW 19:56:13 61° W 20:00:33 10° N
Lacrosse 5 rocket 0.5 19:54:42 10° SW 19:57:56 80° SE 20:00:40 13° NE
NOSS 3-2 (A) 4.5 19:50:54 10° NW 19:58:22 66° WSW 20:06:45 12° SSE
ARIANE 6 FM1 Upper Stage 3.9 19:55:15 10° WSW 19:59:13 43° NW 20:03:07 10° NNE
Meteor 2-5 Rocket 4.3 19:54:42 10° NNW 20:00:06 56° W 20:05:31 10° S
ERS-1 Rocket 2.9 19:57:46 16° SSE 20:01:44 77° ENE 20:06:45 10° N
Cosmos 1933 Rocket 3.4 19:59:19 10° S 20:03:38 70° E 20:08:01 10° NNE
Nadezhda 3 Rocket 4.3 19:59:23 10° NNW 20:05:31 68° W 20:11:35 10° S
Cosmos 2218 Rocket 4.3 20:06:05 20° SSE 20:09:58 45° E 20:15:45 10° NNE
Cosmos 1943 Rocket 3.0 20:05:35 10° NNW 20:10:50 36° NE 20:12:58 27° E
Helios 1A Rocket 3.8 20:09:28 10° N 20:12:29 37° WNW 20:15:29 10° SW
Meteor 1-12 Rocket 4.4 20:07:02 10° S 20:13:00 88° W 20:19:04 10° N
YAOGAN 11 4.3 20:09:04 10° NNE 20:13:07 42° E 20:13:56 38° SE
In-Cosmos 22 Rocket 4.0 20:11:10 10° N 20:16:29 66° ENE 20:19:02 31° SSE
Cosmos 1733 Rocket 4.3 20:18:20 25° ENE 20:18:20 25° ENE 20:21:12 10° NNE
OPS 6432 4.3 20:16:14 10° NW 20:19:35 74° SW 20:20:04 59° S
CZ-4B R/B 4.5 20:20:21 26° E 20:21:02 27° ENE 20:25:04 10° N
Okean-O 2.8 20:20:35 42° ESE 20:21:35 51° ENE 20:25:50 10° N
Cosmos 1821 Rocket 4.4 20:22:24 32° SE 20:24:28 42° E 20:30:19 10° NNE
Cosmos 494 Rocket 3.9 20:19:23 10° NNW 20:24:33 72° ENE 20:26:29 39° SE
Cosmos 962 Rocket 4.4 20:19:13 10° S 20:25:29 89° E 20:31:44 10° N
Cosmos 2360 Rocket 4.3 20:21:52 10° WSW 20:26:41 29° NW 20:31:34 10° N
Cosmos 1869 Rocket 3.6 20:30:47 21° SSW 20:33:37 79° W 20:38:02 10° N
ADEOS 3.9 20:32:47 22° S 20:36:04 62° WSW 20:41:15 10° NNW
Terra 2.3 20:34:16 23° S 20:37:02 55° W 20:41:39 10° NNW
CZ-4 R/B 3.5 20:35:36 10° SSW 20:38:36 22° W 20:41:36 10° NW
Aureole 3 4.3 20:36:19 10° N 20:40:03 40° ENE 20:40:03 40° ENE
BREEZE-M DEB (TANK) 4.3 20:38:37 10° WSW 20:42:38 84° NNW 20:59:40 10° ENE
Okean O Rocket 1.5 20:43:57 61° S 20:44:43 86° WSW 20:49:06 10° NNW
Cosmos 2237 Rocket 2.8 20:47:31 37° E 20:47:31 37° E 20:51:45 10° NE
Cosmos 2242 Rocket 3.8 20:42:09 10° N 20:46:21 52° ENE 20:46:21 52° ENE
Cosmos 1980 4.1 20:47:57 43° E 20:47:57 43° E 20:52:37 10° NE
SL-08 R/B 3.9 20:44:06 10° N 20:48:54 59° WNW 20:53:42 10° SSW
Cosmos 2322 3.9 20:44:43 10° SSW 20:50:24 72° WNW 20:56:09 10° NNE
CZ-4B R/B 3.7 20:51:35 36° NNE 20:51:35 36° NNE 20:53:58 10° N
ASTEX 1 3.4 20:50:47 59° E 20:50:58 60° E 20:55:48 10° N
Cosmos 2341 Rocket 4.1 20:46:43 13° SSW 20:52:17 76° W 20:58:35 10° N
Meteor 1-21 Rocket 4.3 20:53:49 10° NNW 20:59:25 76° W 21:01:09 46° S
Cosmos 1680 Rocket 4.4 20:55:51 10° NNW 21:00:46 43° WSW 21:02:37 31° SSW
SPOT 3 Rocket 3.5 21:02:11 66° E 21:02:29 68° ENE 21:07:39 10° N
Cosmos 2219 Rocket 4.4 20:58:43 10° WSW 21:03:14 25° NW 21:07:47 10° N
Meteor 2-21 Rocket 4.3 21:08:15 10° N 21:14:21 69° E 21:14:50 66° ESE
USA 245 4.1 21:17:16 52° NNW 21:17:16 52° NNW 21:20:47 10° NNW
COSMOS 2428 3.6 21:14:47 10° SW 21:20:18 49° WNW 21:25:53 10° NNE
Cosmos 2369 Rocket 4.0 21:16:38 10° N 21:20:23 18° NE 21:20:57 18° NE
NOSS 0 Rocket 4.1 21:16:58 10° SSW 21:23:12 73° WNW 21:29:27 10° NNE
Ariane Rocket 3.0 21:26:52 74° N 21:26:52 74° N 21:31:27 10° NNW
Cosmos 1727 Rocket 3.9 21:21:26 10° N 21:27:50 89° W 21:28:33 73° S
Cosmos 2278 Rocket 2.2 21:23:52 10° NNW 21:29:32 73° WSW 21:29:39 72° WSW
USA 238 DEB 3.9 21:23:17 10° NW 21:30:45 78° NE 21:32:16 61° ESE
USA 238 3.9 21:23:27 10° NW 21:30:55 77° NE 21:32:26 61° ESE
Lacrosse 5 rocket 3.8 21:32:42 10° WNW 21:34:04 16° NW 21:34:04 16° NW
Meteor 2-8 Rocket 4.4 21:47:10 78° W 21:47:15 79° W 21:53:21 10° N
Cosmos 1656 Rocket 4.3 21:45:59 10° NNW 21:50:17 46° NNE 21:50:17 46° NNE
SL-16 R/B 4.1 21:58:05 19° NE 21:58:05 19° NE 21:59:44 10° NE
Cosmos 1943 Rocket 3.2 21:49:21 10° NW 21:54:29 37° WSW 21:54:29 37° WSW
SeaSat 1 3.4 21:59:30 43° N 21:59:30 43° N 22:02:57 10° NNW
Cosmos 1934 Rocket 4.1 22:03:44 70° NNE 22:03:44 70° NNE 22:09:15 10° N
Cosmos 2123 Rocket 4.0 21:58:07 10° N 22:03:50 75° NNW 22:03:50 75° NNW
USA 59 Rocket 2.5 22:02:07 10° NNW 22:02:48 16° NNW 22:02:48 16° NNW
NOSS 3-4 (A) 3.9 22:10:29 49° NW 22:10:43 49° NW 22:16:22 10° NNE
NOSS 3-4 (C) 3.9 22:11:01 50° NW 22:11:12 50° NW 22:16:53 10° NNE
Cosmos 2237 Rocket 3.6 22:29:12 30° W 22:30:34 34° NW 22:35:43 10° N
Cosmos 2369 Rocket 3.5 22:59:32 10° NNW 23:02:43 35° NNW 23:02:43 35° NNW
SJ 16-02 4.3 23:32:35 10° N 23:33:17 14° N 23:33:17 14° N
SL-16 R/B 3.8 23:39:53 31° NNW 23:39:53 31° NNW 23:43:46 10° N
ACS3 Solar Sail 4.0 23:38:32 10° NE 23:40:25 14° ENE 23:40:25 14° ENE
CZ-2C R/B 4.2 23:44:18 33° NNE 23:44:18 33° NNE 23:47:29 10° N
